Location: La Sarre
(48.8000°N, 79.2000°W)
Time: 11:15:43
(UTC-04:00)

ISS - Visible Passes

Search period start: 29 September 2020 00:00
Search period end: 09 October 2020 00:00
Orbit: 419 x 421 km, 51.6° (Epoch: 30 September)

Date Brightness Start Highest point End Pass type
(mag) Time Alt. Az. Time Alt. Az. Time Alt. Az.
29 Sep -3.2 19:39:08 10° WNW 19:42:26 51° N 19:45:32 11° E visible
29 Sep -2.7 21:16:01 10° WNW 21:18:30 45° W 21:18:30 45° W visible
30 Sep -3.8 20:28:46 10° WNW 20:32:09 84° NNE 20:33:04 45° ESE visible
30 Sep -0.4 22:05:56 10° W 22:06:02 11° W 22:06:02 11° W visible
01 Oct -3.6 19:41:29 10° WNW 19:44:52 67° NNE 19:47:39 14° E visible
01 Oct -2.0 21:18:27 10° W 21:20:38 28° WSW 21:20:38 28° WSW visible
02 Oct -3.2 20:31:05 10° WNW 20:34:23 51° SSW 20:35:16 38° SSE visible
03 Oct -3.6 19:43:46 10° WNW 19:47:09 72° SSW 19:49:57 14° ESE visible
03 Oct -1.1 21:21:23 10° W 21:22:56 15° SW 21:22:56 15° SW visible
04 Oct -1.8 20:33:38 10° W 20:36:24 23° SW 20:37:42 18° S visible
05 Oct -2.3 19:46:07 10° W 19:49:13 34° SW 19:52:18 10° SSE visible
07 Oct -1.0 19:48:59 10° W 19:51:04 15° SW 19:53:09 10° S visible
